NSZ2926 EKCH-LIRF

Flight info

Callsign NSZ2926
Flight time N/A
Altitude 38000
Route NEXEN T503 GIMRU DCT MICOS/N0448F370 DCT NEBUN DCT EMBOX DCT AKOSI M736 RUDNO DCT SIMBA DCT MORED DCT PIDEP DCT DIPVO DCT NIKMA DCT RITEB
Aircraft B738/M-SDE2E3FGHIRWXY/LB1

Departure

Time N/A
Airport Copenhagen Kastrup Airport (EKCH)

Arrival

Time 2026-02-17 11:55
Airport Rome–Fiumicino Leonardo da Vinci International Airport (LIRF)
Time Latitude Longitude Altitude Speed Heading
2026-02-17 11:29 43.56492 12.20204 35628 ft 481 kts 186°
2026-02-17 11:30 43.53090 12.20263 35427 ft 491 kts 188°
2026-02-17 11:30 43.49651 12.20181 35227 ft 501 kts 189°
2026-02-17 11:30 43.46191 12.19998 34950 ft 512 kts 190°
2026-02-17 11:31 43.39114 12.19494 33679 ft 521 kts 190°
2026-02-17 11:31 43.35571 12.19258 33094 ft 522 kts 189°
2026-02-17 11:31 43.31971 12.19025 32448 ft 525 kts 190°
2026-02-17 11:31 43.28345 12.18828 31734 ft 528 kts 190°
2026-02-17 11:32 43.24688 12.18652 31075 ft 529 kts 190°
2026-02-17 11:32 43.21008 12.18468 30378 ft 531 kts 189°
2026-02-17 11:32 43.17346 12.18292 29686 ft 532 kts 188°
2026-02-17 11:32 43.13731 12.18120 28985 ft 532 kts 189°
2026-02-17 11:33 43.10003 12.17939 28255 ft 531 kts 188°
2026-02-17 11:33 43.06375 12.17752 27554 ft 529 kts 189°
2026-02-17 11:33 43.02692 12.17547 26855 ft 526 kts 188°
2026-02-17 11:33 42.99071 12.17360 26125 ft 523 kts 188°
2026-02-17 11:34 42.95469 12.17187 25385 ft 519 kts 188°
2026-02-17 11:34 42.91885 12.17019 24714 ft 514 kts 187°
2026-02-17 11:34 42.88374 12.16868 24087 ft 509 kts 187°
2026-02-17 11:35 42.81438 12.16569 22705 ft 497 kts 187°
2026-02-17 11:35 42.78107 12.16426 22051 ft 490 kts 186°
2026-02-17 11:35 42.74873 12.16299 21391 ft 484 kts 184°
2026-02-17 11:35 42.71551 12.16677 20866 ft 480 kts 171°
2026-02-17 11:36 42.68480 12.17952 20794 ft 463 kts 158°
2026-02-17 11:36 42.65789 12.19793 20758 ft 438 kts 149°
2026-02-17 11:36 42.63249 12.21813 20793 ft 413 kts 149°
2026-02-17 11:36 42.60805 12.23639 20757 ft 392 kts 159°
2026-02-17 11:37 42.58303 12.24661 20777 ft 385 kts 172°
2026-02-17 11:37 42.55661 12.25180 20775 ft 394 kts 177°
2026-02-17 11:37 42.52894 12.25583 20798 ft 403 kts 177°
2026-02-17 11:37 42.50145 12.26023 20799 ft 392 kts 176°
2026-02-17 11:38 42.47532 12.26509 20763 ft 383 kts 174°
2026-02-17 11:38 42.44913 12.27054 20567 ft 385 kts 174°
2026-02-17 11:38 42.42263 12.27648 19918 ft 383 kts 172°
2026-02-17 11:39 42.37142 12.28838 18877 ft 367 kts 172°
2026-02-17 11:39 42.34619 12.29410 18191 ft 364 kts 172°
2026-02-17 11:39 42.32161 12.29963 17524 ft 361 kts 172°
2026-02-17 11:39 42.29783 12.30489 16851 ft 358 kts 172°
2026-02-17 11:40 42.27316 12.31033 15978 ft 360 kts 173°
2026-02-17 11:40 42.24884 12.31563 15107 ft 361 kts 172°
2026-02-17 11:40 42.22430 12.32090 14365 ft 357 kts 172°
2026-02-17 11:40 42.20012 12.32603 13732 ft 350 kts 172°
2026-02-17 11:41 42.17631 12.33112 13137 ft 345 kts 172°
2026-02-17 11:41 42.15304 12.33625 12771 ft 339 kts 172°
2026-02-17 11:41 42.12958 12.34131 12199 ft 340 kts 172°
2026-02-17 11:41 42.10644 12.34635 11546 ft 343 kts 171°
2026-02-17 11:42 42.08416 12.35124 10960 ft 345 kts 171°
2026-02-17 11:42 42.06110 12.35618 10788 ft 335 kts 171°
2026-02-17 11:42 42.03809 12.36113 10781 ft 342 kts 172°
2026-02-17 11:43 41.99269 12.37108 9855 ft 344 kts 171°
2026-02-17 11:43 41.96980 12.37616 9544 ft 336 kts 171°
2026-02-17 11:43 41.94723 12.38110 9100 ft 333 kts 171°
2026-02-17 11:43 41.92476 12.38596 8610 ft 332 kts 171°
2026-02-17 11:44 41.90221 12.39083 8132 ft 331 kts 171°
2026-02-17 11:44 41.87990 12.39560 7745 ft 326 kts 171°
2026-02-17 11:44 41.85818 12.40029 7490 ft 318 kts 171°
2026-02-17 11:44 41.83683 12.40543 7232 ft 310 kts 167°
2026-02-17 11:45 41.81641 12.41248 6968 ft 300 kts 162°
2026-02-17 11:45 41.79692 12.42099 6718 ft 290 kts 160°
2026-02-17 11:45 41.77792 12.42965 6465 ft 281 kts 160°
2026-02-17 11:45 41.75982 12.43750 6216 ft 273 kts 161°
2026-02-17 11:46 41.74184 12.44487 5974 ft 270 kts 162°
2026-02-17 11:46 41.72556 12.45146 5748 ft 266 kts 163°
2026-02-17 11:46 41.70773 12.45873 5495 ft 264 kts 162°
2026-02-17 11:47 41.67303 12.47326 5002 ft 262 kts 167°
2026-02-17 11:47 41.65535 12.47475 4672 ft 257 kts 194°
2026-02-17 11:47 41.63953 12.46527 4340 ft 240 kts 226°
2026-02-17 11:47 41.63002 12.44865 3894 ft 228 kts 250°
2026-02-17 11:48 41.62383 12.42911 3377 ft 228 kts 254°
2026-02-17 11:48 41.61834 12.40983 3076 ft 220 kts 255°
2026-02-17 11:48 41.61581 12.39056 2827 ft 202 kts 281°
2026-02-17 11:48 41.62018 12.37386 2670 ft 184 kts 302°
2026-02-17 11:49 41.62698 12.36003 2483 ft 173 kts 315°
2026-02-17 11:49 41.63691 12.35188 2470 ft 170 kts 336°
2026-02-17 11:49 41.64774 12.34551 2480 ft 168 kts 334°
2026-02-17 11:49 41.65851 12.33966 2479 ft 167 kts 341°
2026-02-17 11:50 41.66880 12.33519 2482 ft 169 kts 340°
2026-02-17 11:50 41.67152 12.33403 2507 ft 170 kts 340°
2026-02-17 11:50 41.68261 12.32935 2482 ft 163 kts 340°
2026-02-17 11:51 41.70438 12.32036 2239 ft 166 kts 341°
2026-02-17 11:51 41.71571 12.31560 2020 ft 170 kts 341°
2026-02-17 11:51 41.72648 12.31118 1818 ft 153 kts 340°
2026-02-17 11:51 41.73618 12.30717 1580 ft 139 kts 340°
2026-02-17 11:52 41.74458 12.30363 1420 ft 130 kts 343°
2026-02-17 11:52 41.75342 12.29997 1260 ft 135 kts 342°
2026-02-17 11:52 41.76234 12.29627 1071 ft 135 kts 340°
2026-02-17 11:52 41.77142 12.29251 881 ft 137 kts 343°
2026-02-17 11:53 41.78062 12.28878 667 ft 138 kts 341°
2026-02-17 11:53 41.78969 12.28486 483 ft 137 kts 341°
2026-02-17 11:53 41.79881 12.28123 322 ft 139 kts 341°
2026-02-17 11:53 41.80822 12.27731 130 ft 141 kts 340°
2026-02-17 11:54 41.81738 12.27342 16 ft 133 kts 341°
2026-02-17 11:54 41.82449 12.27047 8 ft 78 kts 342°
2026-02-17 11:54 41.82836 12.26887 9 ft 51 kts 342°
2026-02-17 11:55 41.83232 12.26516 9 ft 13 kts 307°
2026-02-17 11:55 41.83221 12.26422 9 ft 10 kts 209°
2026-02-17 11:55 41.83144 12.26434 9 ft 14 kts 162°
2026-02-17 11:55 41.83042 12.26478 9 ft 12 kts 162°
2026-02-17 11:56 41.82960 12.26512 9 ft 13 kts 162°
2026-02-17 11:56 41.82855 12.26556 9 ft 20 kts 163°
2026-02-17 11:56 41.82686 12.26627 10 ft 30 kts 162°
2026-02-17 11:56 41.82507 12.26702 9 ft 20 kts 162°
2026-02-17 11:57 41.82392 12.26750 7 ft 17 kts 162°
2026-02-17 11:57 41.82261 12.26804 6 ft 22 kts 162°
2026-02-17 11:57 41.82101 12.26870 7 ft 25 kts 162°
2026-02-17 11:57 41.81944 12.26937 9 ft 23 kts 162°
2026-02-17 11:58 41.81801 12.26996 9 ft 24 kts 162°
2026-02-17 11:58 41.81657 12.27056 9 ft 25 kts 163°
2026-02-17 11:58 41.81498 12.27124 9 ft 24 kts 162°
2026-02-17 11:59 41.81200 12.27247 9 ft 22 kts 164°
2026-02-17 11:59 41.81065 12.27306 9 ft 20 kts 162°
2026-02-17 11:59 41.80935 12.27349 9 ft 17 kts 176°
2026-02-17 11:59 41.80813 12.27331 9 ft 18 kts 191°
2026-02-17 12:00 41.80687 12.27286 9 ft 18 kts 211°
2026-02-17 12:00 41.80633 12.27154 9 ft 16 kts 248°
2026-02-17 12:00 41.80591 12.26993 9 ft 19 kts 249°
2026-02-17 12:00 41.80544 12.26825 9 ft 19 kts 250°
2026-02-17 12:01 41.80495 12.26647 10 ft 22 kts 251°
2026-02-17 12:01 41.80445 12.26471 13 ft 18 kts 249°
2026-02-17 12:01 41.80391 12.26373 13 ft 13 kts 198°
2026-02-17 12:01 41.80281 12.26402 13 ft 19 kts 164°
2026-02-17 12:02 41.80145 12.26363 13 ft 20 kts 205°
2026-02-17 12:02 41.80020 12.26286 14 ft 19 kts 204°
2026-02-17 12:02 41.79902 12.26214 16 ft 18 kts 204°
2026-02-17 12:03 41.79744 12.26104 19 ft 9 kts 209°
2026-02-17 12:03 41.79688 12.26067 19 ft 7 kts 205°
2026-02-17 12:03 41.79674 12.26045 19 ft 3 kts 262°
2026-02-17 12:03 41.79684 12.26009 19 ft 3 kts 295°
2026-02-17 12:04 41.79691 12.25989 19 ft 0 kts 296°